Probability
0 0 0 0 0 0 0 0 0 0 0 0 0 0 0 1 0 0 1 1 2 3 3 3 4 5 6 7 7 7 6 6 8 9 11 12 13 12 11 11 10 7 6 5
0 0 0 0 0 0 0 0 0 0 0 0 0 0 1 1 1 1 1 2 2 2 3 3 4 5 6 7 7 7 6 7 8 10 9 9 8 7 8 9 8 6 4 4
0 0 0 0 0 0 0 0 0 0 0 0 0 0 1 2 2 1 1 1 1 1 2 3 4 5 7 7 7 6 6 7 8 9 8 5 4 4 6 8 7 5 3 3
0 0 0 0 0 0 0 0 0 0 0 0 0 0 0 1 1 1 0 0 0 1 2 3 4 5 6 6 6 6 6 6 7 7 6 4 3 4 6 7 7 6 4 4
0 0 0 0 0 0 0 0 0 0 0 0 0 0 0 0 1 1 0 0 0 0 1 2 3 4 5 5 5 5 5 4 4 4 4 4 3 3 4 5 6 6 5 5
0 0 0 0 0 0 0 0 0 0 0 0 0 0 0 0 0 0 0 0 0 0 0 1 1 3 4 4 4 4 4 3 3 3 4 4 4 4 4 5 6 6 6 6
0 0 0 0 0 0 0 0 0 0 0 0 0 0 0 0 0 0 0 0 0 1 1 1 1 2 3 3 3 3 3 3 3 3 4 5 6 6 6 6 6 6 6 5
0 0 0 0 0 0 0 0 0 0 0 0 0 0 0 0 0 0 0 0 0 1 2 2 1 2 3 3 3 3 3 3 3 3 3 4 6 7 7 5 5 5 5 3
0 0 0 0 0 0 0 0 0 0 0 0 0 0 0 0 0 0 0 0 0 1 3 3 2 2 2 3 3 3 3 3 3 3 3 3 4 5 6 5 4 4 3 2
0 0 0 0 0 0 0 0 0 0 0 0 0 0 0 0 0 0 0 0 0 1 2 2 1 1 1 2 3 3 3 3 3 3 3 3 3 4 5 6 5 4 3 2
0 0 0 0 0 0 0 0 0 0 0 0 0 0 0 0 0 0 0 0 0 0 1 1 0 0 0 1 1 2 3 3 3 3 3 4 4 3 4 5 5 5 3 2
0 0 0 0 0 0 0 0 0 0 0 0 0 0 0 0 0 0 0 0 0 0 0 0 0 0 0 0 0 1 2 3 3 3 4 5 5 3 2 3 3 3 2 1
0 0 0 0 0 0 0 0 0 0 0 0 0 0 0 0 0 0 0 0 0 0 0 0 0 0 0 0 0 0 1 2 3 3 4 5 5 4 2 2 2 1 1 0
0 0 0 0 0 0 0 0 0 0 0 0 0 0 0 0 0 0 0 0 0 0 0 0 0 0 0 0 0 0 0 1 1 2 3 4 5 4 3 3 3 2 1 0
0 0 0 0 0 0 0 0 0 0 0 0 0 0 0 0 0 0 0 0 0 0 0 0 0 0 0 0 0 0 0 0 0 1 2 3 4 4 3 3 4 4 2 1
0 0 0 0 0 0 0 0 0 0 0 0 0 0 0 0 0 0 0 0 0 0 0 0 0 0 0 0 0 0 0 0 0 0 1 1 2 2 3 3 4 5 4 2
0 0 0 0 0 0 0 0 0 0 0 0 0 0 0 0 0 0 0 0 0 0 0 0 0 0 0 0 0 0 0 0 0 0 0 0 0 2 3 3 3 4 5 3
0 0 0 0 0 0 0 0 0 0 0 0 0 0 0 0 0 0 0 0 0 0 0 0 0 0 0 0 0 0 0 0 0 0 0 0 0 1 2 3 3 3 3 2
0 0 0 0 0 0 0 0 0 0 0 0 0 0 0 0 0 0 0 0 0 0 0 0 0 0 0 0 0 0 0 0 0 0 0 0 0 1 1 2 2 1 1 1
0 0 0 0 0 0 0 0 0 0 0 0 0 0 0 0 0 0 0 0 0 0 0 0 0 0 0 0 0 0 0 0 0 0 0 0 0 0 0 1 1 0 0 0
0 0 0 0 0 0 0 0 0 0 0 0 0 0 0 0 0 0 0 0 0 0 0 0 0 0 0 0 0 0 0 0 0 0 0 0 0 0 0 0 0 0 0 0
0 0 0 0 0 0 0 0 0 0 0 0 0 0 0 0 0 0 0 0 0 0 0 0 0 0 0 0 0 0 0 0 0 0 0 0 0 0 0 0 0 0 0 0
0 0 0 0 0 0 0 0 0 0 0 0 0 0 0 0 0 0 0 0 0 0 0 0 0 0 0 0 0 0 0 0 0 0 0 0 0 0 0 0 0 0 0 0
0 0 0 0 0 0 0 0 0 0 0 0 0 0 0 0 0 0 0 0 0 0 0 0 0 0 0 0 0 0 0 0 0 0 0 0 0 0 0 0 0 0 0 0
0 0 0 0 0 0 0 0 0 0 0 0 0 0 0 0 0 0 0 0 0 0 0 0 0 0 0 0 0 0 0 0 0 0 0 0 0 0 0 0 0 0 0 0
0 0 0 0 0 0 0 0 0 0 0 0 0 0 0 0 0 0 0 0 0 0 0 0 0 0 0 0 0 0 0 0 0 0 0 0 0 0 0 0 0 0 0 0
0 0 0 0 0 0 0 0 0 0 0 0 0 0 0 0 0 0 0 0 0 0 0 0 0 0 0 0 0 0 0 0 0 0 0 0 0 0 0 0 0 0 0 0
Wind_Speed
10 9 7 8 9 9 10 10 10 8 8 6 4 2 1 2 2 3 2 1 1 0 1 1 0 0 1 2 1 1 2 2 2 2 2 2 2 2 2 2 3 2 2 1
11 10 10 11 11 10 10 11 11 9 8 4 3 2 1 2 2 1 0 0 1 1 1 1 0 1 1 1 2 2 2 2 1 1 1 1 2 2 2 2 3 3 2 2
9 9 10 11 9 9 9 8 8 7 5 2 3 3 2 2 2 1 1 1 2 2 1 1 1 1 1 2 2 1 1 1 1 1 1 1 2 2 2 2 2 2 2 2
6 7 10 3 2 4 6 6 5 4 2 3 4 3 2 1 0 0 1 1 2 3 2 2 2 1 1 1 2 1 1 1 1 1 1 0 1 2 2 2 2 2 2 2
6 8 8 4 2 2 4 5 3 3 2 3 4 4 2 1 2 2 1 1 2 2 3 2 2 2 1 2 1 1 1 1 1 1 1 1 2 3 2 2 2 2 2 3
7 7 7 1 1 2 2 4 2 2 2 3 3 3 2 3 2 2 2 2 2 2 3 2 2 1 1 2 1 1 1 1 1 1 1 2 2 2 2 2 2 2 2 2
9 9 5 0 2 1 2 2 2 2 2 2 4 3 2 3 3 2 2 2 2 3 2 2 2 2 1 1 1 1 1 1 1 1 2 2 2 2 2 1 1 1 1 1
8 9 6 2 1 2 1 2 2 2 2 3 3 3 3 3 3 2 2 2 2 2 2 2 1 2 1 1 0 0 0 1 1 1 2 1 1 1 2 2 2 2 2 1
4 3 0 1 0 1 2 2 2 2 2 2 2 3 3 2 2 2 2 2 2 2 3 2 2 2 1 1 0 1 0 1 1 1 1 1 1 2 2 2 2 2 2 2
7 4 3 3 1 1 2 3 3 2 2 2 3 3 3 2 2 2 2 1 2 2 2 2 2 2 1 1 1 0 1 2 1 1 1 0 0 1 2 2 2 2 2 2
9 5 3 3 3 2 3 3 3 3 3 3 3 3 3 3 2 2 2 2 2 2 2 2 2 1 1 1 1 1 1 1 1 1 1 0 0 1 2 2 2 3 2 2
7 6 5 4 3 3 3 3 4 4 4 3 3 3 3 3 2 2 2 2 2 2 3 2 1 1 1 1 1 1 1 1 1 1 1 1 1 1 2 2 2 2 3 3
8 7 5 4 3 4 5 5 5 5 4 4 3 3 3 3 2 2 2 3 3 2 2 2 2 2 2 1 2 2 1 1 1 1 1 2 2 1 1 2 1 2 3 3
6 6 6 5 5 5 5 5 5 5 4 4 3 3 3 3 3 3 3 3 3 2 2 2 2 2 2 2 2 2 2 2 2 1 1 1 1 2 2 2 2 1 2 3
8 7 7 5 5 5 5 5 5 5 4 4 3 3 3 3 3 3 3 2 2 2 2 2 2 2 2 2 3 2 1 1 1 1 1 1 2 2 1 2 2 2 1 1
6 6 6 6 6 6 6 6 6 5 5 4 3 3 4 3 3 3 3 2 2 3 2 2 3 3 2 2 2 2 1 2 1 1 1 1 1 1 1 1 1 2 2 2
7 6 6 6 6 7 6 6 6 5 5 4 3 3 3 3 3 3 2 2 2 2 2 2 3 2 2 2 2 2 1 1 2 1 1 2 2 2 2 2 2 2 2 2
6 6 6 6 6 6 6 5 4 5 4 4 3 3 3 3 4 3 2 2 2 2 2 2 2 2 2 2 2 2 1 1 1 2 1 1 1 1 1 1 2 2 1 2
6 5 5 5 5 4 4 5 4 4 4 3 3 3 3 3 3 3 2 2 3 3 2 1 2 2 2 1 2 1 1 1 1 1 1 2 1 1 1 2 2 2 2 1
4 4 3 3 3 3 4 4 3 3 3 3 3 3 3 3 3 3 3 3 3 2 1 1 2 2 2 1 2 1 1 1 1 1 1 1 1 1 1 2 2 1 2 2
3 3 3 3 3 3 3 3 3 3 3 3 3 4 4 3 3 3 3 3 2 1 1 1 2 1 1 1 2 1 2 1 1 1 1 1 1 1 1 1 1 0 0 1
3 3 3 3 3 3 3 3 3 3 3 3 3 3 3 3 3 3 3 2 1 2 1 2 2 1 2 2 1 2 2 2 1 1 1 1 1 1 1 1 0 0 0 1
2 2 3 3 3 3 3 3 3 3 3 2 3 3 3 2 2 2 2 1 1 2 2 2 2 3 3 2 1 2 2 2 1 1 1 1 1 1 1 1 1 1 1 1
1 2 2 3 2 2 2 2 1 1 1 2 2 2 2 1 2 2 1 1 1 2 2 2 3 3 3 2 1 2 2 2 1 1 1 1 1 1 1 1 1 1 1 1
2 2 2 2 2 1 2 2 1 1 1 1 1 1 1 1 1 1 1 1 1 2 1 2 3 3 2 2 2 2 2 2 2 1 1 1 1 1 1 1 1 1 1 2
1 2 2 2 2 1 1 1 1 1 0 0 0 0 0 0 0 0 0 0 1 2 2 2 2 2 2 2 1 2 1 1 2 1 1 1 1 1 1 1 2 1 1 2
1 1 1 1 1 1 1 1 1 1 1 1 0 0 0 0 0 0 0 1 1 1 1 1 1 1 1 1 1 2 1 1 1 1 1 1 1 1 1 1 1 1 1 1
Wind_Direction
278 284 285 280 275 272 268 271 275 286 285 281 284 294 289 279 239 207 182 167 168 219 283 301 314 293 289 287 276 256 258 262 257 252 220 214 213 229 229 198 203 190 229 211
274 273 271 268 263 260 263 266 271 276 278 293 325 334 310 292 274 246 142 5 316 297 280 294 308 268 268 295 290 266 254 256 246 230 215 231 235 240 216 192 189 184 204 177
273 271 273 263 255 249 255 257 265 271 287 328 319 304 285 274 260 261 319 332 312 293 291 294 287 280 270 282 282 271 279 277 237 210 197 236 285 281 203 196 191 187 186 159
273 269 257 258 312 267 270 274 279 288 317 326 319 317 322 324 288 49 10 331 317 320 313 304 297 290 284 286 274 261 268 266 244 206 186 206 260 270 222 195 188 189 181 172
260 265 269 261 269 262 267 272 285 299 329 339 338 313 295 10 5 12 12 342 309 304 302 298 294 279 275 294 284 264 274 270 261 218 182 208 250 255 227 204 202 201 190 179
255 262 264 256 79 30 301 269 29 17 1 348 328 293 303 14 15 14 15 3 333 303 292 288 287 263 241 266 264 248 269 274 267 219 203 213 234 241 224 213 208 206 199 190
251 260 265 164 88 48 263 289 36 22 346 330 303 316 343 359 2 5 3 344 334 321 311 313 313 291 254 264 265 278 281 270 266 242 231 223 213 218 199 206 204 212 211 201
240 250 249 140 196 256 311 31 30 18 333 315 335 343 342 354 355 346 344 336 339 326 320 325 304 283 290 282 292 30 357 259 238 249 252 240 194 200 195 198 201 213 211 212
253 256 345 203 248 352 337 344 347 346 333 339 325 314 324 335 332 329 329 328 335 321 310 323 334 329 326 307 29 81 349 270 238 245 245 213 204 217 206 206 196 205 205 209
279 262 259 274 274 297 306 316 327 328 321 311 302 307 310 308 311 316 319 313 313 308 297 315 332 344 355 352 1 228 251 261 234 229 237 211 238 249 221 208 200 204 211 211
272 272 277 266 264 275 289 304 309 307 297 285 282 283 291 295 296 300 305 297 284 284 285 292 317 338 342 320 294 277 265 271 245 213 225 202 285 291 253 233 222 212 213 210
271 278 264 259 252 267 276 280 283 286 288 281 267 270 278 276 277 278 281 286 273 276 280 277 286 304 308 282 257 254 275 286 258 197 198 206 201 319 346 262 232 227 229 220
281 300 299 290 270 264 268 275 278 278 272 270 263 260 272 274 269 271 273 281 277 269 266 266 276 284 282 270 257 244 251 269 262 216 207 210 208 217 262 317 315 271 238 224
285 292 281 273 270 269 270 275 276 276 272 267 267 263 266 274 271 267 270 277 287 286 273 265 275 286 292 288 276 255 240 249 260 233 224 223 227 233 229 227 240 258 250 224
264 268 269 271 266 265 268 270 268 265 265 260 253 254 256 259 262 269 273 271 280 284 277 270 278 288 297 292 287 272 245 226 228 241 243 235 234 238 241 238 229 218 210 232
267 267 265 266 266 264 255 255 259 259 260 258 253 257 263 260 257 267 264 245 248 266 273 276 285 295 289 282 290 284 264 265 268 241 240 238 239 232 228 234 241 228 228 228
262 257 256 259 264 268 263 260 262 262 259 253 253 261 262 253 254 254 255 249 249 263 271 275 279 288 290 277 274 268 259 243 254 254 236 237 234 237 230 222 233 230 228 226
267 263 255 254 256 263 269 270 267 265 266 265 251 245 245 245 250 254 251 249 253 257 254 262 278 286 285 269 265 265 242 230 235 242 247 246 251 247 241 232 232 234 226 213
269 268 266 266 267 267 271 274 268 261 261 255 241 243 246 248 253 254 248 243 244 249 255 254 286 278 271 262 288 268 246 240 240 249 254 266 266 260 254 244 238 232 218 204
276 277 278 284 283 272 267 268 266 257 257 252 242 245 247 244 241 241 237 239 238 241 260 279 267 266 260 258 289 263 257 239 231 239 239 236 249 262 265 262 249 230 217 203
272 275 272 276 284 282 270 262 257 254 255 241 237 242 246 248 240 233 231 242 237 220 235 256 254 262 266 295 283 265 254 241 229 230 226 229 237 252 273 281 274 234 196 172
272 270 268 269 269 275 272 261 250 249 251 243 246 250 253 255 250 246 241 235 218 203 223 231 231 253 286 295 247 252 254 249 239 235 224 224 224 237 266 271 200 118 104 115
265 266 266 265 266 271 276 266 248 240 235 235 239 245 250 256 251 245 254 242 190 204 231 244 257 260 267 258 249 250 251 250 244 233 226 219 214 221 222 213 171 139 137 128
279 287 289 285 280 275 277 289 289 255 241 238 233 243 253 255 263 259 257 235 215 223 234 238 243 246 249 243 243 247 245 244 241 237 228 220 209 199 190 175 161 151 151 142
304 301 300 308 300 289 295 313 318 292 245 224 231 227 221 227 243 268 270 237 225 232 247 247 245 245 240 237 230 236 239 240 246 244 217 204 199 189 175 175 174 178 172 163
300 314 317 324 326 319 315 311 295 280 234 200 228 201 175 208 305 306 282 248 250 264 261 239 225 225 237 234 229 236 234 237 239 225 206 199 195 193 176 174 189 183 172 164
295 295 318 334 331 325 316 295 280 278 256 208 227 172 92 19 302 261 254 236 241 248 246 245 235 227 230 230 232 231 224 218 207 187 188 191 192 199 181 182 181 166 160 162